�������l�o���
Date,Time,MP-1(��Sv/h),MP-2(��Sv/h),MP-3(��Sv/h),MP-4(��Sv/h),MP-5(��Sv/h),MP-6(��Sv/h),MP-7(��Sv/h),MP-8(��Sv/h),����,����(m/s),���J
2022/10/21,00:00,0.563,0.812,0.522,1.014,0.715,0.334,0.582,0.549,���쐼,5.5,��
2022/10/21,00:10,0.562,0.812,0.521,1.014,0.716,0.332,0.581,0.550,��,5.8,��
2022/10/21,00:20,0.561,0.811,0.521,1.013,0.715,0.335,0.582,0.549,���쐼,6.6,��
2022/10/21,00:30,0.562,0.814,0.521,1.013,0.715,0.334,0.583,0.547,���쐼,5.9,��
2022/10/21,00:40,0.561,0.812,0.522,1.015,0.714,0.334,0.583,0.549,��,5.4,��
2022/10/21,00:50,0.562,0.811,0.522,1.014,0.715,0.333,0.581,0.549,��,4.4,��
2022/10/21,01:00,0.561,0.811,0.521,1.013,0.715,0.333,0.583,0.549,��,5.3,��
2022/10/21,01:10,0.562,0.813,0.523,1.015,0.716,0.334,0.582,0.550,��,4.7,��
2022/10/21,01:20,0.561,0.811,0.523,1.014,0.715,0.332,0.582,0.548,���쐼,4.7,��
2022/10/21,01:30,0.561,0.811,0.523,1.014,0.714,0.333,0.582,0.549,��,3.6,��
2022/10/21,01:40,0.561,0.813,0.522,1.012,0.715,0.334,0.583,0.550,���k��,2.8,��
2022/10/21,01:50,0.561,0.812,0.523,1.012,0.715,0.332,0.582,0.551,��,2.0,��
2022/10/21,02:00,0.561,0.812,0.522,1.011,0.714,0.332,0.582,0.550,���쐼,1.7,��
2022/10/21,02:10,0.561,0.810,0.522,1.012,0.714,0.333,0.583,0.550,���쐼,2.0,��
2022/10/21,02:20,0.562,0.811,0.522,1.013,0.714,0.333,0.582,0.550,���쐼,1.2,��
2022/10/21,02:30,0.561,0.810,0.521,1.012,0.715,0.335,0.583,0.550,���쐼,1.7,��
2022/10/21,02:40,0.562,0.812,0.522,1.012,0.713,0.331,0.583,0.547,���쐼,3.3,��
2022/10/21,02:50,0.561,0.810,0.522,1.012,0.715,0.335,0.581,0.549,���쐼,3.8,��
2022/10/21,03:00,0.560,0.811,0.521,1.013,0.713,0.332,0.583,0.550,���쐼,2.5,��
2022/10/21,03:10,0.561,0.812,0.521,1.014,0.714,0.334,0.582,0.549,��,2.2,��
2022/10/21,03:20,0.561,0.811,0.521,1.014,0.714,0.333,0.581,0.549,��,3.8,��
2022/10/21,03:30,0.562,0.810,0.522,1.013,0.716,0.332,0.582,0.549,��,4.0,��
2022/10/21,03:40,0.560,0.812,0.521,1.013,0.715,0.334,0.582,0.550,���쐼,4.5,��
2022/10/21,03:50,0.562,0.811,0.521,1.015,0.715,0.333,0.581,0.550,���쐼,4.9,��
2022/10/21,04:00,0.562,0.810,0.521,1.013,0.714,0.334,0.582,0.550,���쐼,5.6,��
2022/10/21,04:10,0.561,0.812,0.522,1.014,0.715,0.332,0.580,0.549,��,5.3,��
2022/10/21,04:20,0.561,0.812,0.520,1.014,0.714,0.333,0.581,0.550,��,4.6,��
2022/10/21,04:30,0.561,0.812,0.521,1.014,0.714,0.332,0.581,0.549,��,3.8,��
2022/10/21,04:40,0.561,0.810,0.521,1.013,0.715,0.333,0.581,0.548,���k��,5.1,��
2022/10/21,04:50,0.560,0.811,0.521,1.013,0.717,0.332,0.580,0.549,��,3.8,��
2022/10/21,05:00,0.562,0.812,0.521,1.013,0.714,0.333,0.582,0.549,���쐼,3.3,��
2022/10/21,05:10,0.560,0.808,0.522,1.013,0.713,0.333,0.582,0.550,��,3.3,��
2022/10/21,05:20,0.561,0.810,0.522,1.012,0.713,0.333,0.581,0.547,��,3.9,��
2022/10/21,05:30,0.560,0.810,0.521,1.014,0.715,0.333,0.582,0.550,��,4.2,��
2022/10/21,05:40,0.561,0.810,0.520,1.014,0.714,0.332,0.580,0.549,��,3.5,��
2022/10/21,05:50,0.562,0.811,0.521,1.012,0.714,0.331,0.582,0.549,���쐼,3.5,��
2022/10/21,06:00,0.560,0.811,0.520,1.013,0.714,0.332,0.581,0.549,���쐼,4.2,��
2022/10/21,06:10,0.559,0.812,0.521,1.013,0.714,0.332,0.581,0.549,�쐼,4.1,��
2022/10/21,06:20,0.560,0.812,0.520,1.013,0.712,0.333,0.581,0.550,�쐼,4.0,��
2022/10/21,06:30,0.559,0.811,0.521,1.014,0.715,0.332,0.582,0.550,�쐼,3.9,��
2022/10/21,06:40,0.562,0.810,0.522,1.014,0.715,0.332,0.581,0.548,�쐼,5.1,��
2022/10/21,06:50,0.561,0.811,0.520,1.015,0.715,0.332,0.581,0.549,�쐼,4.7,��
2022/10/21,07:00,0.560,0.813,0.522,1.014,0.714,0.332,0.581,0.549,�쐼,4.6,��
2022/10/21,07:10,0.561,0.811,0.522,1.013,0.716,0.334,0.582,0.549,�쐼,3.8,��
2022/10/21,07:20,0.561,0.812,0.521,1.014,0.715,0.332,0.581,0.551,���쐼,2.3,��
2022/10/21,07:30,0.562,0.812,0.522,1.015,0.714,0.333,0.581,0.550,��,1.9,��
2022/10/21,07:40,0.562,0.811,0.522,1.013,0.713,0.332,0.582,0.549,��,2.5,��
2022/10/21,07:50,0.561,0.810,0.522,1.014,0.715,0.331,0.582,0.552,���쐼,2.6,��
2022/10/21,08:00,0.563,0.813,0.523,1.012,0.714,0.331,0.583,0.550,�쐼,2.9,��
2022/10/21,08:10,0.563,0.812,0.522,1.013,0.713,0.330,0.583,0.550,��쐼,2.0,��
2022/10/21,08:20,0.563,0.809,0.520,1.014,0.714,0.332,0.581,0.550,�쐼,1.5,��
2022/10/21,08:30,0.563,0.810,0.521,1.017,0.716,0.331,0.583,0.550,�쐼,1.7,��
2022/10/21,08:40,0.562,0.808,0.522,1.015,0.716,0.333,0.581,0.549,�쐼,1.7,��
2022/10/21,08:50,0.563,0.808,0.523,1.014,0.715,0.333,0.581,0.551,���쐼,2.0,��
2022/10/21,09:00,0.562,0.808,0.527,1.013,0.714,0.333,0.582,0.549,���쐼,1.2,��
2022/10/21,09:10,0.562,0.808,0.522,1.013,0.715,0.334,0.582,0.551,��,1.2,��
2022/10/21,09:20,0.563,0.810,0.523,1.015,0.715,0.333,0.582,0.551,��,1.4,��
2022/10/21,09:30,0.563,0.810,0.521,1.015,0.713,0.334,0.582,0.551,�쓌,1.5,��
2022/10/21,09:40,0.563,0.809,0.522,1.014,0.714,0.334,0.583,0.553,��,0.8,��
2022/10/21,09:50,0.562,0.812,0.524,1.014,0.714,0.331,0.581,0.550,��쓌,2.0,��
2022/10/21,10:00,0.564,0.811,0.524,1.014,0.715,0.331,0.582,0.549,��쓌,1.2,��
2022/10/21,10:10,0.562,0.810,0.523,1.014,0.709,0.331,0.581,0.549,�쓌,1.5,��
2022/10/21,10:20,0.565,0.811,0.522,1.017,0.715,0.332,0.581,0.548,��쓌,2.3,��
2022/10/21,10:30,0.563,0.810,0.523,1.015,0.715,0.332,0.583,0.549,��,2.0,��
2022/10/21,10:40,0.563,0.811,0.518,1.016,0.716,0.332,0.581,0.549,�쓌,3.5,��
2022/10/21,10:50,0.564,0.811,0.522,1.014,0.718,0.333,0.581,0.549,��쓌,5.4,��
2022/10/21,11:00,0.565,0.812,0.521,1.018,0.717,0.333,0.583,0.549,��쓌,5.6,��
2022/10/21,11:10,0.565,0.812,0.522,1.017,0.716,0.333,0.581,0.548,��쓌,6.6,��
2022/10/21,11:20,0.564,0.811,0.521,1.016,0.718,0.334,0.583,0.550,��쓌,7.7,��
2022/10/21,11:30,0.565,0.811,0.522,1.017,0.716,0.333,0.583,0.547,��쓌,7.8,��
2022/10/21,11:40,0.567,0.813,0.523,1.016,0.717,0.333,0.583,0.549,��쓌,8.0,��
2022/10/21,11:50,0.565,0.815,0.524,1.017,0.718,0.333,0.584,0.551,��쓌,8.9,��
2022/10/21,12:00,0.565,0.812,0.523,1.017,0.718,0.333,0.582,0.548,��쓌,8.1,��
2022/10/21,12:10,0.565,0.813,0.523,1.017,0.721,0.334,0.582,0.549,��쓌,9.9,��
2022/10/21,12:20,0.566,0.814,0.525,1.018,0.718,0.334,0.583,0.550,��쓌,7.9,��
2022/10/21,12:30,0.565,0.814,0.524,1.018,0.720,0.333,0.583,0.549,��쓌,8.5,��
2022/10/21,12:40,0.566,0.813,0.524,1.018,0.718,0.333,0.584,0.549,��,7.3,��
2022/10/21,12:50,0.565,0.815,0.524,1.016,0.719,0.333,0.583,0.550,��쓌,9.2,��
2022/10/21,13:00,0.566,0.815,0.525,1.019,0.718,0.335,0.584,0.550,��쓌,7.1,��
2022/10/21,13:10,0.566,0.815,0.524,1.019,0.719,0.335,0.583,0.550,��쓌,8.4,��
2022/10/21,13:20,0.567,0.815,0.525,1.017,0.718,0.335,0.582,0.551,��쓌,9.9,��
2022/10/21,13:30,0.568,0.812,0.525,1.020,0.719,0.334,0.581,0.550,��쓌,9.3,��
2022/10/21,13:40,0.566,0.814,0.524,1.017,0.720,0.335,0.584,0.549,��쓌,9.2,��
2022/10/21,13:50,0.567,0.815,0.526,1.020,0.720,0.335,0.583,0.548,��,8.6,��
2022/10/21,14:00,0.568,0.814,0.524,1.020,0.719,0.335,0.583,0.550,��쓌,9.3,��
2022/10/21,14:10,0.566,0.815,0.524,1.017,0.720,0.334,0.583,0.550,��쓌,9.5,��
2022/10/21,14:20,0.567,0.816,0.525,1.017,0.720,0.335,0.584,0.551,��,7.5,��
2022/10/21,14:30,0.567,0.815,0.526,1.018,0.720,0.335,0.583,0.550,��,6.9,��
2022/10/21,14:40,0.566,0.814,0.526,1.019,0.720,0.334,0.582,0.550,��,5.8,��
2022/10/21,14:50,0.567,0.816,0.526,1.020,0.722,0.335,0.581,0.550,��,7.0,��
2022/10/21,15:00,0.568,0.815,0.526,1.017,0.718,0.335,0.582,0.549,��,7.7,��
2022/10/21,15:10,0.566,0.814,0.525,1.019,0.720,0.334,0.583,0.550,��,8.5,��
2022/10/21,15:20,0.567,0.815,0.525,1.020,0.721,0.335,0.584,0.550,��,7.9,��
2022/10/21,15:30,0.567,0.816,0.524,1.021,0.719,0.335,0.583,0.550,��,7.0,��
2022/10/21,15:40,0.567,0.815,0.524,1.019,0.721,0.336,0.582,0.551,��,7.1,��
2022/10/21,15:50,0.566,0.818,0.525,1.020,0.719,0.335,0.583,0.549,��,7.1,��
2022/10/21,16:00,0.567,0.815,0.525,1.019,0.721,0.337,0.580,0.549,��,7.6,��
2022/10/21,16:10,0.566,0.818,0.526,1.019,0.718,0.336,0.583,0.552,��,8.5,��
2022/10/21,16:20,0.565,0.816,0.525,1.019,0.719,0.337,0.584,0.549,��,8.0,��
2022/10/21,16:30,0.565,0.816,0.524,1.018,0.719,0.336,0.584,0.552,��,7.7,��
2022/10/21,16:40,0.567,0.819,0.524,1.021,0.723,0.335,0.583,0.551,��,7.3,��
2022/10/21,16:50,0.568,0.819,0.527,1.018,0.721,0.336,0.585,0.554,��,5.9,��
2022/10/21,17:00,0.570,0.820,0.526,1.019,0.723,0.337,0.584,0.552,��쐼,4.8,��
2022/10/21,17:10,0.569,0.821,0.528,1.018,0.721,0.336,0.583,0.553,��쐼,5.2,��
2022/10/21,17:20,0.569,0.821,0.527,1.018,0.723,0.337,0.584,0.551,��쐼,5.0,��
2022/10/21,17:30,0.567,0.820,0.526,1.020,0.724,0.337,0.582,0.551,��,4.3,��
2022/10/21,17:40,0.569,0.820,0.527,1.019,0.722,0.335,0.583,0.551,��,5.3,��
2022/10/21,17:50,0.569,0.820,0.528,1.019,0.723,0.336,0.586,0.552,��,5.6,��
2022/10/21,18:00,0.571,0.819,0.527,1.020,0.722,0.337,0.583,0.549,��쐼,5.4,��
2022/10/21,18:10,0.567,0.820,0.528,1.020,0.723,0.335,0.584,0.552,��쐼,6.4,��
2022/10/21,18:20,0.570,0.818,0.528,1.019,0.723,0.335,0.584,0.551,��,6.6,��
2022/10/21,18:30,0.570,0.818,0.529,1.021,0.723,0.335,0.584,0.553,��,7.5,��
2022/10/21,18:40,0.569,0.819,0.528,1.019,0.723,0.336,0.585,0.553,��,7.0,��
2022/10/21,18:50,0.571,0.819,0.527,1.019,0.723,0.336,0.583,0.551,��,6.4,��
2022/10/21,19:00,0.569,0.819,0.528,1.020,0.723,0.337,0.585,0.550,��,5.7,��
2022/10/21,19:10,0.570,0.821,0.527,1.020,0.722,0.335,0.586,0.553,��쐼,5.7,��
2022/10/21,19:20,0.571,0.819,0.527,1.019,0.725,0.336,0.584,0.552,��쐼,5.6,��
2022/10/21,19:30,0.569,0.821,0.527,1.018,0.722,0.336,0.583,0.552,��,4.9,��
2022/10/21,19:40,0.569,0.819,0.527,1.019,0.722,0.335,0.583,0.552,��쐼,5.6,��
2022/10/21,19:50,0.568,0.819,0.527,1.018,0.725,0.337,0.584,0.552,��쐼,7.1,��
2022/10/21,20:00,0.570,0.819,0.528,1.019,0.721,0.336,0.584,0.551,��쐼,6.8,��
2022/10/21,20:10,0.570,0.819,0.527,1.017,0.722,0.336,0.585,0.551,��쐼,6.2,��
2022/10/21,20:20,0.568,0.819,0.528,1.018,0.724,0.336,0.583,0.553,��쐼,5.1,��
2022/10/21,20:30,0.568,0.821,0.526,1.021,0.723,0.336,0.584,0.551,��쐼,5.5,��
2022/10/21,20:40,0.569,0.819,0.527,1.019,0.722,0.335,0.583,0.551,��쐼,5.5,��
2022/10/21,20:50,0.569,0.819,0.526,1.020,0.722,0.336,0.585,0.550,��쐼,4.9,��
2022/10/21,21:00,0.568,0.819,0.526,1.018,0.723,0.335,0.583,0.551,��,6.4,��
2022/10/21,21:10,0.568,0.821,0.527,1.017,0.721,0.335,0.584,0.551,��쐼,6.6,��
2022/10/21,21:20,0.570,0.820,0.527,1.019,0.723,0.335,0.584,0.552,��,6.6,��
2022/10/21,21:30,0.569,0.820,0.527,1.019,0.723,0.336,0.583,0.551,��,6.4,��
2022/10/21,21:40,0.568,0.819,0.527,1.020,0.723,0.337,0.582,0.551,��,7.0,��
2022/10/21,21:50,0.569,0.821,0.527,1.017,0.722,0.336,0.584,0.551,��,7.0,��
2022/10/21,22:00,0.571,0.820,0.526,1.017,0.723,0.335,0.584,0.552,��,6.6,��
2022/10/21,22:10,0.568,0.819,0.526,1.018,0.724,0.336,0.584,0.550,��,5.8,��
2022/10/21,22:20,0.568,0.818,0.528,1.021,0.723,0.334,0.583,0.552,��쐼,5.8,��
2022/10/21,22:30,0.568,0.818,0.527,1.017,0.722,0.336,0.582,0.550,��쐼,4.4,��
2022/10/21,22:40,0.568,0.818,0.528,1.019,0.722,0.335,0.585,0.551,��쐼,4.8,��
2022/10/21,22:50,0.568,0.819,0.527,1.017,0.722,0.335,0.583,0.551,��쐼,5.2,��
2022/10/21,23:00,0.570,0.817,0.527,1.019,0.723,0.336,0.583,0.551,��쐼,4.1,��
2022/10/21,23:10,0.567,0.820,0.526,1.021,0.723,0.337,0.583,0.552,��,3.0,��
2022/10/21,23:20,0.570,0.820,0.527,1.019,0.722,0.336,0.583,0.552,��,4.3,��
2022/10/21,23:30,0.567,0.820,0.526,1.019,0.721,0.335,0.585,0.551,��,6.0,��
2022/10/21,23:40,0.570,0.819,0.526,1.019,0.724,0.334,0.583,0.551,��,4.8,��
2022/10/21,23:50,0.567,0.821,0.526,1.020,0.724,0.335,0.584,0.552,��,4.8,��
